Flight Track Log - Related Links

Times and Time Zones

All times are in EDT time to prevent confusion due to time zone crossing. See the EJA982 flight status page for this flight to view local times or setup timezone preferences in your user account.


Time Position Orientation Groundspeed Altitude Reporting Facility
EDT Latitude Longitude Course Direction KTS MPH feet Rate Location/Type
Mon 10:01:00 PM 40.8448 -73.8087 27° Northeast  Level Estimated
Mon 10:02:45 PM 40.9667 -73.8333 299° West 270 311 5,100  Level New York TRACON
Mon 10:03:45 PM 41.0333 -73.8833 331° Northwest 277 319 5,100  Level New York TRACON
Mon 10:04:00 PM 41.1965 -73.6089 24° Northeast  Level FlightAware Approximate
Mon 10:04:45 PM 41.0833 -73.9500 315° West 274 315 5,100  Level New York TRACON
Mon 10:05:39 PM 41.1333 -74.0167 315° West 275 316 5,100  Level New York TRACON
Mon 10:06:45 PM 41.2000 -74.1000 317° Northwest 272 313 5,100  Level New York TRACON
Mon 10:07:45 PM 41.2500 -74.1667 315° West 278 320 5,100 -50 Level New York TRACON
Mon 10:08:00 PM 41.3172 -73.6846 299° West  Level FlightAware Approximate
Mon 10:08:45 PM 41.3000 -74.2333 315° West 273 314 5,000  Level New York TRACON
Mon 10:09:39 PM 41.3667 -74.2667 339° North 281 323 4,600 -650 Descending New York TRACON
Mon 10:10:45 PM 41.4333 -74.2333 21° North 251 289 3,700 -1,238 Descending New York TRACON
Mon 10:11:45 PM 41.4833 -74.2000 27° Northeast 202 232 2,000 -1,474 Descending New York TRACON
Mon 10:12:39 PM 41.5000 -74.1500 66° East 141 162 900 -1,222 Descending New York TRACON
Mon 10:14:00 PM 41.5000 -74.1000 298° West  Level FlightAware Approximate
Mon 10:21:00 PM 41.5041 -74.1048 298° West  Level Estimated
Mon 10:22:00 PM 41.5000 -74.1000 298° West  Level FlightAware Approximate
Mon 10:23:00 PM 41.5041 -74.1048 298° West  Level Estimated
Mon 10:24:00 PM 41.5000 -74.1000 298° West  Level FlightAware Approximate
Mon 10:25:00 PM 41.5041 -74.1048 298° West  Level Estimated
Mon 10:26:00 PM 41.5000 -74.1000 298° West  Level FlightAware Approximate
Mon 10:27:00 PM 41.5041 -74.1048 298° West  Level Estimated

Login

Don't have an account? Register now (free) for customized features, flight alerts, and more!